EZY53LT EGGD-LIRP

Flight info

Callsign EZY53LT
Flight time N/A
Altitude 37000
Route YORQI1Z YORQI L607 ALHAD DCT MID UL612 OGULO DCT OKASI DCT OKEKO DCT MOU DCT MADIV DCT MOKIP DCT TUFTA DCT GEVEA DCT MOBLO DCT LURAG DCT OBUXA DCT ASTIG DCT OLETI DCT TIDKA L50 KONER KONER1D
Aircraft A320/M-SDE2E3FGHIJ1RWXYZ/LB1

Departure

Time 2026-05-06 07:09
Airport Bristol Airport (EGGD)

Arrival

Time N/A
Airport Pisa International Airport (LIRP)
Time Latitude Longitude Altitude Speed Heading
2026-05-06 06:45 51.38564 -2.70912 611 ft 0 kts 267°
2026-05-06 06:58 51.38564 -2.70903 610 ft 4 kts 267°
2026-05-06 06:58 51.38565 -2.70866 617 ft 4 kts 262°
2026-05-06 06:58 51.38574 -2.70841 625 ft 4 kts 187°
2026-05-06 06:58 51.38595 -2.70840 610 ft 2 kts 176°
2026-05-06 06:59 51.38570 -2.70838 608 ft 4 kts 176°
2026-05-06 06:59 51.38543 -2.70835 615 ft 4 kts 176°
2026-05-06 06:59 51.38525 -2.70833 610 ft 0 kts 176°
2026-05-06 07:01 51.38524 -2.70833 610 ft 0 kts 176°
2026-05-06 07:02 51.38487 -2.70847 612 ft 7 kts 217°
2026-05-06 07:02 51.38467 -2.70887 619 ft 4 kts 249°
2026-05-06 07:02 51.38462 -2.71011 615 ft 16 kts 271°
2026-05-06 07:02 51.38454 -2.71173 618 ft 13 kts 265°
2026-05-06 07:03 51.38448 -2.71344 616 ft 21 kts 266°
2026-05-06 07:03 51.38438 -2.71616 618 ft 24 kts 266°
2026-05-06 07:03 51.38427 -2.71874 611 ft 22 kts 268°
2026-05-06 07:03 51.38431 -2.72104 609 ft 18 kts 270°
2026-05-06 07:04 51.38421 -2.72281 612 ft 14 kts 263°
2026-05-06 07:04 51.38412 -2.72413 617 ft 10 kts 264°
2026-05-06 07:04 51.38411 -2.72516 625 ft 9 kts 270°
2026-05-06 07:04 51.38410 -2.72603 615 ft 7 kts 269°
2026-05-06 07:05 51.38406 -2.72686 617 ft 11 kts 265°
2026-05-06 07:05 51.38399 -2.72875 615 ft 22 kts 267°
2026-05-06 07:05 51.38391 -2.73141 615 ft 20 kts 266°
2026-05-06 07:05 51.38390 -2.73159 615 ft 0 kts 265°
2026-05-06 07:06 51.38390 -2.73160 615 ft 0 kts 265°
2026-05-06 07:06 51.38390 -2.73161 615 ft 0 kts 265°
2026-05-06 07:06 51.38389 -2.73179 623 ft 8 kts 265°
2026-05-06 07:06 51.38341 -2.73333 621 ft 13 kts 195°
2026-05-06 07:07 51.38276 -2.73342 624 ft 3 kts 178°
2026-05-06 07:07 51.38254 -2.73337 623 ft 8 kts 167°
2026-05-06 07:07 51.38221 -2.73310 625 ft 4 kts 140°
2026-05-06 07:07 51.38219 -2.73293 625 ft 2 kts 93°
2026-05-06 07:08 51.38217 -2.73219 628 ft 3 kts 84°
2026-05-06 07:08 51.38217 -2.73217 625 ft 0 kts 84°
2026-05-06 07:08 51.38225 -2.73030 623 ft 53 kts 86°
2026-05-06 07:08 51.38261 -2.72083 619 ft 115 kts 86°
2026-05-06 07:09 51.38313 -2.70574 813 ft 147 kts 85°
2026-05-06 07:09 51.38419 -2.68844 1260 ft 166 kts 80°
2026-05-06 07:09 51.38664 -2.66912 1692 ft 187 kts 74°
2026-05-06 07:09 51.39027 -2.64849 2129 ft 198 kts 79°
2026-05-06 07:10 51.39094 -2.62513 2453 ft 220 kts 90°
2026-05-06 07:10 51.39036 -2.60002 3006 ft 236 kts 91°
2026-05-06 07:10 51.39033 -2.57272 3559 ft 251 kts 80°
2026-05-06 07:10 51.39780 -2.54774 4342 ft 255 kts 44°
2026-05-06 07:11 51.41201 -2.53043 5164 ft 260 kts 32°
2026-05-06 07:11 51.42780 -2.51549 5813 ft 268 kts 28°
2026-05-06 07:11 51.44423 -2.50125 5982 ft 269 kts 27°
2026-05-06 07:11 51.46055 -2.48676 6010 ft 268 kts 29°
2026-05-06 07:12 51.47665 -2.47157 6013 ft 269 kts 30°
2026-05-06 07:12 51.49261 -2.45597 6017 ft 268 kts 30°
2026-05-06 07:12 51.50726 -2.43757 6014 ft 269 kts 49°
2026-05-06 07:12 51.51602 -2.41400 6025 ft 271 kts 70°
2026-05-06 07:13 51.51852 -2.38301 6603 ft 281 kts 93°